Location: Olsztyn
(53.7767°N, 20.4765°E)
Time: 18:22:59
(UTC+02:00)

A-11 Canister half - Pass Details

Date: 27 January 2022
Orbit: 1513 x 1686 km, 47.2° (Epoch: 24 May)

Event Time Altitude Azimuth Distance (km) Brightness Sun altitude
Rises 19:35:37 0° 269° (W) 4,715 12.7 -30.1°
Reaches altitude 10° 19:38:45 10° 266° (W) 3,714 11.8 -30.5°
Maximum altitude 19:47:44 55° 192° (SSW) 1,770 9.2 -31.8°
Enters shadow 19:49:08 51° 162° (SSE) 1,840 9.1 -32.0°
